Regional Weather Roundup
Issued by NWS Albany, NY

Home | Current Version | Previous Version | Text Only | Print | Product List | Glossary On
Versions: 1 2 3 4 5 6 7 8 9 10 11 12 13 14 15 16 17 18 19 20 21 22 23 24 25 26 27 28 29 30 31 32 33 34 35 36 37 38 39 40 41 42 43 44 45 46 47 48 49 50
000
ASUS41 KALY 070810
RWRALY

NEW YORK STATE HOURLY WEATHER ROUNDUP
NATIONAL WEATHER SERVICE ALBANY NY
400 AM EDT THU MAY 07 2015

NOTE: "FAIR" INDICATES FEW OR NO CLOUDS BELOW 12,000 FEET WITH NO
SIGNIFICANT WEATHER AND/OR NO OBSTRUCTIONS TO VISIBILITY.

NYZ032-033-038>043-046>054-057>066-NYZ062>081-070900-
EAST


CITY           SKY/WX    TMP DP  RH WIND       PRES   REMARKS
ALBANY         PTCLDY    52  40  63 CALM      30.20F
GLENS FALLS    CLEAR     44  38  79 CALM      30.20S
POUGHKEEPSIE   CLEAR     46  43  89 CALM      30.20S
MONTGOMERY     CLEAR     47  45  93 S3        30.20F
WHITE PLAINS   CLEAR     49  46  90 NW5       30.20F
ISLIP          CLEAR     48  42  80 N3        30.19F
NEW YORK CITY  CLEAR     57  46  66 CALM      30.20F
CENTRAL PARK   CLEAR     58  45  62 W3        30.23F
$$

NYZ005>009-017-018-044>046-055-056-070900-
CENTRAL


CITY           SKY/WX    TMP DP  RH WIND       PRES   REMARKS
FULTON         CLEAR     49  41  74 CALM      30.20S
SYRACUSE       PTCLDY    51  46  83 SE5       30.20S
ROME           CLEAR     44  39  82 CALM      30.23S
ELMIRA         CLOUDY    48  48 100 CALM      30.21R FOG
BINGHAMTON     CLEAR     52  47  83 E3        30.21F
MONTICELLO     CLEAR     45  41  87 CALM      30.24S
$$

NYZ026>034-041>043-070900-
NORTH


CITY           SKY/WX    TMP DP  RH WIND       PRES   REMARKS
WATERTOWN      CLEAR     47  38  71 N3        30.20R
FORT DRUM      NOT AVBL
MASSENA        CLEAR     50  37  61 SW7       30.18S
SARANAC LAKE   CLEAR     31  29  92 CALM      30.20S
PLATTSBURGH    CLEAR     47  39  74 CALM      30.16R
$$

NYZ001>004-010>016-019>021-070900-
WEST


CITY           SKY/WX    TMP DP  RH WIND       PRES   REMARKS
NIAGARA FALLS  CLEAR     51  41  68 CALM      30.16F
BUFFALO        CLEAR     56  52  86 SE5       30.17F
DUNKIRK        PTCLDY    49  48  97 CALM      30.16S FOG
JAMESTOWN      CLOUDY    54  52  94 SE5       30.20R VSB 1/4
WELLSVILLE     CLOUDY    54  52  93 CALM      30.21F FOG
ROCHESTER      PTCLDY    51  45  79 CALM      30.19S
PENN YAN       CLEAR     50  48  93 CALM      30.19F
$$

             KEY
       WCI = WIND CHILL INDEX
       VSB = VISIBILITY
       HX  = HEAT INDEX
$$



USA.gov is the U.S. government's official web portal to all federal, state and local government web resources and services.